Regional Weather Roundup
Issued by NWS Kansas City/Pleasant Hill, MO

Home | Current Version | Previous Version | Graphics & Text | Print | Product List | Glossary Off
Versions: 1 2 3 4 5 6 7 8 9 10 11 12 13 14 15 16 17 18 19 20 21 22 23 24 25 26 27 28 29 30 31 32 33 34 35 36 37 38 39 40 41 42 43 44 45 46 47 48 49 50

000
ASUS43 KEAX 011710
RWREAX

WEATHER ROUNDUP FOR EASTERN KANSAS AND NORTHWEST MISSOURI
NATIONAL WEATHER SERVICE KANSAS CITY/PLEASANT HILL MO
1200 PM CDT SAT AUG 01 2015

KSZ040-057-103>105-MOZ028-029-037-043-011800-
...KANSAS CITY METROPOLITAN AREA...

CITY           SKY/WX    TMP DP  RH WIND       PRES   REMARKS
K.C. INTL      PTSUNNY   85  75  72 W5        30.06F HX  93
K.C. DOWNTOWN  PTSUNNY   84  73  69 SW7       30.06R HX  90
LEES SUMMIT    PTSUNNY   84  71  65 W8        30.07F
OLATHE - IXD   CLOUDY    87  73  62 VRB3      30.08F HX  94
OLATHE - OJC   MOSUNNY   86  70  58 NE10      30.07S HX  90
LAWRENCE       SUNNY     87  74  64 W6        30.06F HX  95

$$

MOZ001>008-011>017-020>025-030>033-038>040-044>046-053-054-011800-
...NORTHERN AND CENTRAL MISSOURI...

CITY           SKY/WX    TMP DP  RH WIND       PRES   REMARKS
ST. JOSEPH     SUNNY     86  74  67 W6        30.04F HX  94
MOSBY          PTSUNNY   86  70  58 W5        30.05S HX  90
WARRENSBURG    MOSUNNY   88  72  58 W6        30.05F HX  94
WHITEMAN AFB   SUNNY     89  72  57 VRB5      30.04F HX  95
CLINTON        SUNNY     88  75  66 CALM      30.07F HX  97
SEDALIA        SUNNY     89  72  56 CALM      30.06F HX  96
WARSAW         NOT AVBL
CHILLICOTHE      N/A     83  74  74 SE5       30.05F
KIRKSVILLE     PTSUNNY   83  70  64 S5        30.05F

$$

MOZ041-047>049-056>058-063>065-088>090-097-011800-
...EASTERN AND SOUTHERN MISSOURI...

CITY           SKY/WX    TMP DP  RH WIND       PRES   REMARKS
ST. LOUIS INTL PTSUNNY   85  59  41 E6        30.07F
SPIRIT OF STL  SUNNY     84  63  49 SE7       30.05F
COLUMBIA       PTSUNNY   84  71  65 S5        30.06F
JEFFERSON CITY MOSUNNY   86  69  56 NE3       30.04F HX  90
ROLLA          MOSUNNY   85  70  60 CALM      30.06F
OSAGE BEACH    SUNNY     88  72  58 W8        30.07F HX  94
SPRINGFIELD    SUNNY     86  62  44 SW9       30.10S
BRANSON        MOSUNNY   86  63  45 CALM      30.12F
JOPLIN         SUNNY     88  61  40 CALM      30.09F
WEST PLAINS    SUNNY     88  64  44 VRB5      30.11S

$$

IAZ060-094-KSZ022-034>040-054-083-096-NEZ052-066-093-011800-
...KANSAS...SOUTHEAST NEBRASKA AND IOWA...

CITY           SKY/WX    TMP DP  RH WIND       PRES   REMARKS
TOPEKA         MOSUNNY   89  73  59 NW6       30.06F HX  97
MANHATTAN      MOSUNNY   88  73  61 CALM      30.06F HX  95
EMPORIA        SUNNY     87  70  56 MISG      30.07F HX  92
CHANUTE        MOSUNNY   88  71  57 VRB5      30.08F HX  94
WICHITA        MOSUNNY   85  71  63 S7        30.08F HX  90
OMAHA          CLOUDY    78  65  63 N5        30.03R
LINCOLN        CLOUDY    78  63  59 S8        30.03S
FALLS CITY     MOSUNNY   83  73  72 NE5       30.04F
LAMONI         CLOUDY    79  71  76 SW5       30.04F
DES MOINES     CLOUDY    83  69  62 SW9       30.02F

$$




USA.gov is the U.S. government's official web portal to all federal, state and local government web resources and services.